• Processing (Info)

  • MPEC 2006-T05 : 2006 SV217

    The following Minor Planet Electronic Circular may be linked-to from your own Web pages, but must not otherwise be redistributed electronically.

    A form allowing access to any MPEC is at the bottom of this page.


    Read MPEC 2006-T04 Read MPEC 2006-T06


    M.P.E.C. 2006-T05                                Issued 2006 Oct. 2, 12:59 UT
    
         The Minor Planet Electronic Circulars contain information on unusual
             minor planets and routine data on comets.  They are published
       on behalf of Commission 20 of the International Astronomical Union by the
              Minor Planet Center, Smithsonian Astrophysical Observatory,
                              Cambridge, MA 02138, U.S.A.
    
                 Prepared using the Tamkin Foundation Computer Network
    
                                  MPC@CFA.HARVARD.EDU
              URL http://cfa-www.harvard.edu/iau/mpc.html  ISSN 1523-6714
    
                                      2006 SV217
    
    Observations:
         K06SL7V* C2006 09 30.23307 00 53 45.42 +04 45 58.2          22.4 V ET005291
         K06SL7V  C2006 09 30.23723 00 53 44.68 +04 45 53.4          22.0 V ET005291
         K06SL7V  C2006 09 30.24092 00 53 44.11 +04 45 49.5          21.9 V ET005291
         K06SL7V  C2006 09 30.27854 00 53 38.07 +04 45 07.4          21.0 V ET005G96
         K06SL7V  C2006 09 30.28764 00 53 36.67 +04 44 57.5          20.8 V ET005G96
         K06SL7V  C2006 09 30.29681 00 53 35.16 +04 44 47.1          20.8 V ET005G96
         K06SL7V  C2006 09 30.30615 00 53 33.64 +04 44 36.7          21.2 V ET005G96
         K06SL7V tC2006 09 30.32243 00 53 31.08 +04 44 19.0          21.5 V ET005291
         K06SL7V tC2006 09 30.32627 00 53 30.39 +04 44 14.6          22.1 V ET005291
         K06SL7V tC2006 09 30.33054 00 53 29.96 +04 44 11.5          21.3 V ET005291
         K06SL7V  C2006 10 01.27845 00 51 20.81 +04 27 06.2                 ET005291
         K06SL7V  C2006 10 01.28231 00 51 20.16 +04 27 01.3                 ET005291
         K06SL7V  C2006 10 01.28608 00 51 19.67 +04 26 58.4                 ET005291
         K06SL7V HC2006 10 02.39424 00 48 55.04 +04 08 15.0                 ET005291
         K06SL7V  C2006 10 02.39794 00 48 54.51 +04 08 11.3                 ET005291
         K06SL7V HC2006 10 02.40161 00 48 54.06 +04 08 06.7                 ET005291
    
    Observer details:
    291 LPL/Spacewatch II.  Observers T. H. Bressi, M. T. Read, A. F. Tubbiolo.
        1.8-m f/2.7 reflector + CCD.
    G96 Mt. Lemmon Survey.  Observer R. A. Kowalski.  Measurers E. C. Beshore,
        E. J. Christensen, G. J. Garradd, A. R. Gibbs, A. D. Grauer, R. E. Hill,
        R. A. Kowalski, S. M. Larson, R. H. McNaught.  1.5-m reflector + CCD.
    
    Orbital elements:
    2006 SV217                                               Earth MOID = 0.0047 AU
    Epoch 2006 Sept. 22.0 TT = JDT 2454000.5                MPC
    M  45.61449              (2000.0)            P               Q
    n   0.64492062     Peri.   97.19587     +0.11868608     +0.99293182
    a   1.3267788      Node   179.62037     -0.91702846     +0.10965310
    e   0.3563560      Incl.    0.89167     -0.38075243     +0.04541579
    P   1.53           H   24.4           G   0.15           U   9
    Residuals in seconds of arc
    060930 291  1.1+  0.0     060930 G96  0.3-  0.1-    061001 291  0.7+  0.5+
    060930 291  0.2-  0.2-    060930 291  0.3-  0.1-    061002 291  0.1+  0.4+
    060930 291  0.0   0.1-    060930 291  1.4-  0.2-    061002 291  0.1-  0.4+
    060930 G96  0.1-  0.1-    060930 291  2.4+  1.4+    061002 291  0.8+  0.6-
    060930 G96  0.7+  0.1+    061001 291  0.5+  0.4+
    060930 G96  0.1+  0.1-    061001 291  0.5-  0.5-
    
    Ephemeris:
    2006 SV217               a,e,i = 1.33, 0.36, 1                   q = 0.8540
    Date    TT    R. A. (2000) Decl.     Delta      r     Elong.  Phase     V
    2006 10 02    00 49.77   +04 15.2    0.176    1.176   175.4     3.9    21.3
    2006 10 03    00 47.71   +03 58.9    0.181    1.182   176.9     2.7    21.3
    2006 10 04    00 45.77   +03 43.7    0.187    1.187   178.2     1.5    21.3
    2006 10 05    00 43.95   +03 29.4    0.193    1.193   178.9     1.0    21.4
    2006 10 06    00 42.23   +03 16.0    0.199    1.199   178.1     1.6    21.5
    2006 10 07    00 40.63   +03 03.5    0.205    1.204   176.8     2.7    21.6
    2006 10 08    00 39.12   +02 51.7    0.211    1.210   175.5     3.8    21.8
    2006 10 09    00 37.71   +02 40.7    0.218    1.216   174.1     4.8    21.9
    2006 10 10    00 36.39   +02 30.5    0.224    1.221   172.8     5.9    22.1
    2006 10 11    00 35.15   +02 21.0    0.231    1.227   171.4     6.9    22.2
    2006 10 12    00 34.00   +02 12.1    0.237    1.233   170.1     8.0    22.3
    
    Timothy B. Spahr             (C) Copyright 2006 MPC           M.P.E.C. 2006-T05
    

    Read MPEC 2006-T04 Read MPEC 2006-T06


    MPEC number:

    Enter an MPEC number in one of the following forms:

    • 1997-B01 (the full form)
    • J97B01 (the packed version of the full form)
    • B01 (the abbreviated form)